This is the latest recevied weather packets stored in our database for station/object DL1GHN-6. If no packets are shown the sender has not sent any weather packets the latest 1 day(s).
| Time | Temp. | Humidity | Pressure | Rain* | Wind** | Luminosity | Snow |
|---|---|---|---|---|---|---|---|
| 1777976119 | 16.67° C | 78% | 1008.8 hPa | 0 mm | 0.45 m/s, 290° | 193 W/m² | - |
| 1777975817 | 17.22° C | 78% | 1008.7 hPa | 0 mm | 0.45 m/s, 314° | 186 W/m² | - |
| 1777975519 | 17.22° C | 78% | 1008.7 hPa | 0 mm | 1.34 m/s, 343° | 181 W/m² | - |
| 1777975219 | 17.22° C | 77% | 1008.7 hPa | 0 mm | 0.89 m/s, 307° | 195 W/m² | - |
| 1777974918 | 17.22° C | 77% | 1008.7 hPa | 0 mm | 0.45 m/s, 355° | 216 W/m² | - |
| 1777974618 | 17.22° C | 78% | 1008.8 hPa | 0 mm | 0.89 m/s, 273° | 241 W/m² | - |
| 1777974317 | 17.22° C | 76% | 1008.8 hPa | 0 mm | 0.89 m/s, 290° | 258 W/m² | - |
| 1777974018 | 17.22° C | 78% | 1008.9 hPa | 0 mm | 1.79 m/s, 233° | 288 W/m² | - |
| 1777973718 | 16.67° C | 78% | 1008.9 hPa | 0 mm | 0.45 m/s, 252° | 304 W/m² | - |
| 1777973417 | 16.67° C | 78% | 1009 hPa | 0 mm | 0.45 m/s, 232° | 290 W/m² | - |
| 1777973117 | 16.67° C | 78% | 1009 hPa | 0 mm | 0.45 m/s, 234° | 315 W/m² | - |
| 1777972817 | 16.67° C | 78% | 1009.1 hPa | 0 mm | 0 m/s | 295 W/m² | - |
| 1777972517 | 17.22° C | 80% | 1009.1 hPa | 0 mm | 0.45 m/s, 141° | 390 W/m² | - |
| 1777972218 | 16.67° C | 80% | 1009.2 hPa | 0 mm | 0.45 m/s, 88° | 448 W/m² | - |
| 1777971917 | 16.67° C | 82% | 1009.2 hPa | 0 mm | 0.45 m/s, 186° | 432 W/m² | - |
| 1777971618 | 16.67° C | 82% | 1009.3 hPa | 0 mm | 0.89 m/s, 226° | 417 W/m² | - |
| 1777971318 | 16.67° C | 82% | 1009.3 hPa | 0 mm | 0.45 m/s, 253° | 367 W/m² | - |
| 1777971018 | 16.67° C | 82% | 1009.3 hPa | 0 mm | 0.45 m/s, 304° | 265 W/m² | - |
| 1777970718 | 16.11° C | 84% | 1009.3 hPa | 0 mm | 1.34 m/s, 288° | 290 W/m² | - |
| 1777970417 | 15.56° C | 84% | 1009.3 hPa | 0 mm | 1.34 m/s, 258° | 251 W/m² | - |
| 1777970118 | 15.56° C | 84% | 1009.4 hPa | 0.25 mm | 0 m/s | 366 W/m² | - |
| 1777969819 | 15.56° C | 86% | 1009.3 hPa | 0.25 mm | 1.79 m/s, 265° | 327 W/m² | - |
| 1777969518 | 15° C | 87% | 1009.3 hPa | 0.51 mm | 0.45 m/s, 263° | 434 W/m² | - |
| 1777969218 | 15° C | 86% | 1009.5 hPa | 0.51 mm | 0 m/s | 387 W/m² | - |
| 1777968917 | 14.44° C | 86% | 1009.4 hPa | 0.51 mm | 0 m/s | 243 W/m² | - |
* Rain latest hour (hover to see other rain measurements)
** Current wind speed in m/s (hover to see current wind gust speed)